Regional Weather Roundup
Issued by NWS

Home | Current Version | Previous Version | Text Only | Print | Product List | Glossary On
Versions: 1 2 3 4 5 6 7 8 9 10 11 12 13 14 15 16 17 18 19 20 21 22 23 24 25 26 27 28 29 30 31 32 33 34 35 36 37 38 39 40 41 42 43 44 45 46 47 48 49 50
000
ASUS44 KOUN 290700
RWROK

WEATHER ROUNDUP FOR OKLAHOMA
NATIONAL WEATHER SERVICE NORMAN OK
200 AM CDT TUE JUL 29 2014

NOTE: "FAIR" INDICATES FEW OR NO CLOUDS BELOW 12,000 FEET WITH NO
      SIGNIFICANT WEATHER AND/OR OBSTRUCTIONS TO VISIBILITY.

OKZ001>007-009>012-014-015-017-290800-
NORTHWEST OKLAHOMA AND THE PANHANDLE

CITY           SKY/WX    TMP DP  RH WIND       PRES   REMARKS
GAGE           MOCLDY    66  61  84 S3        30.22F
ENID/WOODRING  MOCLDY    70  64  83 CALM      30.15F
$$

OKZ016-021>023-033>039-044-045-290800-
SOUTHWEST OKLAHOMA

CITY           SKY/WX    TMP DP  RH WIND       PRES   REMARKS
LAWTON/REGL    CLOUDY    72  69  90 CALM      30.16F
LAWTON/FT SILL CLOUDY    74  69  84 CALM      30.16S
FREDERICK      CLOUDY    74  70  87 NW3       30.14F
CLINTON        CLOUDY    74  66  76 CALM      30.21F
HOBART         CLOUDY    73  69  87 SE3       30.19F
$$

OKZ018>020-024>031-290800-
CENTRAL OKLAHOMA

CITY           SKY/WX    TMP DP  RH WIND       PRES   REMARKS
OKLAHOMA CITY  MOCLDY    72  63  73 CALM      30.16F
OKC/WILEY POST MOCLDY    73  64  73 CALM      30.16F
STILLWATER     PTCLDY    65  61  87 CALM      30.15F
GUTHRIE        MOCLDY    69  64  84 CALM      30.16F
$$

OKZ008-013-054>072-290800-
NORTHEAST OKLAHOMA

CITY           SKY/WX    TMP DP  RH WIND       PRES   REMARKS
TULSA          PTCLDY    69  62  78 CALM      30.13S
TULSA/JONES    CLEAR     65  62  90 CALM      30.14S
PONCA CITY     PTCLDY    65  61  87 CALM      30.16S
BARTLESVILLE   CLEAR     61  59  93 CALM      30.16S
MUSKOGEE       CLEAR     67  62  84 CALM      30.14S
$$

OKZ032-040>043-046>053-073>077-290800-
SOUTH CENTRAL/SOUTHEAST OKLAHOMA

CITY           SKY/WX    TMP DP  RH WIND       PRES   REMARKS
ARDMORE/DWNTWN PTCLDY    68  64  88 CALM      30.14S
MCALESTER      PTCLDY    65  62  90 CALM      30.13F
$$




USA.gov is the U.S. government's official web portal to all federal, state and local government web resources and services.